• In Uzbekistan
  • List of Countries
  • For 7 days
  • Water Temperature
  • Weather Map
  • Weather Widgets
  • user-avatar
    Login

    Hourly Weather Bereznegovatoe

    Today, 25 January, Saturday

    Time Temperature Precipitation Wind Pressure Humidity
    00:00 -2°C° 0 mm 4 mps 759 mmHg 68%
    01:00 -2°C° 0 mm 4 mps 759 mmHg 69%
    02:00 -2°C° 0 mm 4 mps 759 mmHg 70%
    03:00 -3°C° 0 mm 4 mps 758 mmHg 71%
    04:00 -2°C° 0 mm 3 mps 758 mmHg 72%
    05:00 -2°C° 0 mm 3 mps 758 mmHg 73%
    06:00 -2°C° 0 mm 3 mps 757 mmHg 73%
    07:00 -2°C° 0 mm 3 mps 757 mmHg 72%
    08:00 -2°C° 0 mm 3 mps 757 mmHg 72%
    09:00 -1°C° 0 mm 3 mps 757 mmHg 65%
    10:00 0°C° 0 mm 4 mps 757 mmHg 59%
    11:00 +1°C° 0 mm 4 mps 757 mmHg 53%
    12:00 +3°C° 0 mm 4 mps 757 mmHg 51%
    13:00 +3°C° 0 mm 4 mps 757 mmHg 50%
    14:00 +3°C° 0 mm 5 mps 757 mmHg 49%
    15:00 +3°C° 0 mm 4 mps 757 mmHg 55%
    16:00 +1°C° 0 mm 4 mps 757 mmHg 60%
    17:00 +1°C° 0 mm 3 mps 757 mmHg 66%
    18:00 +1°C° 0 mm 3 mps 757 mmHg 68%
    19:00 +1°C° 0 mm 3 mps 758 mmHg 71%
    20:00 +1°C° 0 mm 3 mps 758 mmHg 73%
    21:00 0°C° 0 mm 4 mps 758 mmHg 73%
    22:00 0°C° 0 mm 4 mps 759 mmHg 72%
    23:00 0°C° 0 mm 4 mps 759 mmHg 72%

    Tomorrow, 26 January, Sunday

    Time Temperature Precipitation Wind Pressure Humidity
    00:00 -1°C° 0 mm 4 mps 759 mmHg 74%
    01:00 0°C° 0 mm 3 mps 759 mmHg 76%
    02:00 -1°C° 0 mm 3 mps 759 mmHg 77%
    03:00 -1°C° 0 mm 3 mps 759 mmHg 78%
    04:00 0°C° 0 mm 3 mps 759 mmHg 78%
    05:00 +1°C° 0 mm 2 mps 759 mmHg 78%
    06:00 +1°C° 0 mm 2 mps 760 mmHg 80%
    07:00 +1°C° 0 mm 2 mps 761 mmHg 82%
    08:00 -1°C° 0 mm 2 mps 761 mmHg 85%
    09:00 +1°C° 0 mm 2 mps 762 mmHg 80%
    10:00 +2°C° 0 mm 2 mps 762 mmHg 75%
    11:00 +4°C° 0 mm 1 mps 762 mmHg 71%
    12:00 +5°C° 0 mm 1 mps 762 mmHg 68%
    13:00 +5°C° 0 mm 1 mps 762 mmHg 65%
    14:00 +6°C° 0 mm 1 mps 762 mmHg 63%
    15:00 +5°C° 0 mm 1 mps 762 mmHg 66%
    16:00 +5°C° 0 mm 1 mps 762 mmHg 69%
    17:00 +3°C° 0 mm 0 mps 762 mmHg 72%
    18:00 +3°C° 0 mm 0 mps 762 mmHg 74%
    19:00 +2°C° 0 mm 0 mps 762 mmHg 76%
    20:00 +2°C° 0 mm 0 mps 762 mmHg 78%
    21:00 +2°C° 0 mm 0 mps 762 mmHg 79%
    22:00 +2°C° 0 mm 1 mps 762 mmHg 80%
    23:00 +2°C° 0 mm 1 mps 762 mmHg 82%

    Day after tomorrow, 27 January, Monday

    Time Temperature Precipitation Wind Pressure Humidity
    00:00 +2°C° 0 mm 1 mps 762 mmHg 83%
    01:00 +2°C° 0 mm 1 mps 761 mmHg 84%
    02:00 +2°C° 0 mm 1 mps 761 mmHg 85%
    03:00 +2°C° 0 mm 1 mps 761 mmHg 86%
    04:00 +1°C° 0 mm 1 mps 761 mmHg 86%
    05:00 +1°C° 0 mm 1 mps 761 mmHg 87%
    06:00 +1°C° 0 mm 1 mps 760 mmHg 87%
    07:00 -1°C° 0 mm 2 mps 760 mmHg 88%
    08:00 -1°C° 0 mm 2 mps 760 mmHg 88%
    09:00 +2°C° 0 mm 2 mps 760 mmHg 81%
    10:00 +4°C° 0 mm 2 mps 760 mmHg 74%
    11:00 +5°C° 0 mm 2 mps 760 mmHg 67%
    12:00 +6°C° 0 mm 2 mps 760 mmHg 64%
    13:00 +7°C° 0 mm 3 mps 759 mmHg 62%
    14:00 +8°C° 0 mm 3 mps 759 mmHg 59%
    15:00 +7°C° 0 mm 2 mps 758 mmHg 64%
    16:00 +6°C° 0 mm 2 mps 758 mmHg 69%
    17:00 +5°C° 0 mm 2 mps 758 mmHg 74%
    18:00 +4°C° 0 mm 2 mps 758 mmHg 76%
    19:00 +4°C° 0 mm 2 mps 758 mmHg 78%
    20:00 +3°C° 0 mm 3 mps 758 mmHg 80%
    21:00 +3°C° 0 mm 3 mps 757 mmHg 82%
    22:00 +3°C° 0 mm 3 mps 757 mmHg 84%
    23:00 +2°C° 0 mm 3 mps 757 mmHg 87%

    28 January, Tuesday

    Time Temperature Precipitation Wind Pressure Humidity
    00:00 +2°C° 0 mm 3 mps 756 mmHg 89%
    01:00 +3°C° 0 mm 2 mps 756 mmHg 91%
    02:00 +3°C° 0 mm 2 mps 756 mmHg 93%
    03:00 +3°C° 0 mm 2 mps 755 mmHg 93%
    04:00 +3°C° 0 mm 2 mps 755 mmHg 93%
    05:00 +3°C° 0 mm 2 mps 755 mmHg 94%
    06:00 +4°C° 0.1 mm 2 mps 754 mmHg 93%
    07:00 +4°C° 0.1 mm 2 mps 754 mmHg 93%
    08:00 +4°C° 0.1 mm 2 mps 754 mmHg 93%
    09:00 +3°C° 0.5 mm 3 mps 754 mmHg 92%
    10:00 +3°C° 0.5 mm 3 mps 754 mmHg 91%
    11:00 +4°C° 0.5 mm 3 mps 754 mmHg 90%
    12:00 +4°C° 0.5 mm 3 mps 753 mmHg 91%
    13:00 +4°C° 0.5 mm 3 mps 753 mmHg 92%
    14:00 +4°C° 0.5 mm 3 mps 752 mmHg 93%
    15:00 +4°C° 0.3 mm 3 mps 752 mmHg 94%
    16:00 +4°C° 0.3 mm 3 mps 752 mmHg 95%
    17:00 +4°C° 0.3 mm 3 mps 752 mmHg 96%
    18:00 +4°C° 0 mm 2 mps 752 mmHg 96%
    19:00 +4°C° 0 mm 2 mps 752 mmHg 96%
    20:00 +4°C° 0 mm 2 mps 752 mmHg 96%
    21:00 +4°C° 0 mm 2 mps 752 mmHg 96%
    22:00 +4°C° 0 mm 2 mps 752 mmHg 96%
    23:00 +4°C° 0 mm 2 mps 751 mmHg 96%

    29 January, Wednesday

    Time Temperature Precipitation Wind Pressure Humidity
    00:00 +4°C° 0 mm 2 mps 751 mmHg 96%
    01:00 +4°C° 0 mm 2 mps 751 mmHg 96%
    02:00 +4°C° 0 mm 2 mps 751 mmHg 96%
    03:00 +4°C° 0 mm 2 mps 750 mmHg 96%
    04:00 +4°C° 0 mm 2 mps 750 mmHg 97%
    05:00 +4°C° 0 mm 2 mps 750 mmHg 97%
    06:00 +3°C° 0 mm 3 mps 749 mmHg 97%
    07:00 +3°C° 0 mm 3 mps 749 mmHg 97%
    08:00 +4°C° 0 mm 4 mps 749 mmHg 96%
    09:00 +5°C° 0 mm 5 mps 748 mmHg 91%
    10:00 +5°C° 0 mm 6 mps 748 mmHg 85%
    11:00 +6°C° 0 mm 8 mps 747 mmHg 80%
    12:00 +6°C° 0.1 mm 8 mps 747 mmHg 78%
    13:00 +6°C° 0.1 mm 8 mps 746 mmHg 77%
    14:00 +7°C° 0.1 mm 8 mps 745 mmHg 76%
    15:00 +6°C° 0.1 mm 7 mps 745 mmHg 78%
    16:00 +5°C° 0.1 mm 7 mps 745 mmHg 80%
    17:00 +5°C° 0.1 mm 6 mps 745 mmHg 82%
    18:00 +5°C° 0.3 mm 6 mps 746 mmHg 78%
    19:00 +4°C° 0.3 mm 6 mps 746 mmHg 73%
    20:00 +4°C° 0.3 mm 6 mps 746 mmHg 69%
    21:00 +3°C° 0 mm 6 mps 747 mmHg 69%
    22:00 +3°C° 0 mm 5 mps 748 mmHg 68%
    23:00 +2°C° 0 mm 5 mps 748 mmHg 68%

    30 January, Thursday

    Time Temperature Precipitation Wind Pressure Humidity
    00:00 +1°C° 0 mm 5 mps 749 mmHg 68%
    01:00 +1°C° 0 mm 5 mps 749 mmHg 69%
    02:00 0°C° 0 mm 5 mps 750 mmHg 69%
    03:00 0°C° 0 mm 4 mps 750 mmHg 72%
    04:00 0°C° 0 mm 4 mps 750 mmHg 75%
    05:00 0°C° 0 mm 3 mps 750 mmHg 78%
    06:00 0°C° 0 mm 3 mps 750 mmHg 72%
    07:00 -1°C° 0 mm 4 mps 750 mmHg 67%
    08:00 -1°C° 0 mm 4 mps 750 mmHg 61%
    09:00 +1°C° 0 mm 5 mps 751 mmHg 58%
    10:00 +3°C° 0 mm 5 mps 751 mmHg 55%
    11:00 +5°C° 0 mm 6 mps 751 mmHg 53%
    12:00 +6°C° 0 mm 5 mps 751 mmHg 49%
    13:00 +6°C° 0 mm 4 mps 750 mmHg 46%
    14:00 +6°C° 0 mm 4 mps 750 mmHg 42%
    15:00 +7°C° 0 mm 3 mps 750 mmHg 45%
    16:00 +5°C° 0 mm 3 mps 750 mmHg 48%
    17:00 +5°C° 0 mm 2 mps 750 mmHg 50%
    18:00 +3°C° 0 mm 3 mps 751 mmHg 55%
    19:00 +2°C° 0 mm 3 mps 751 mmHg 60%
    20:00 +1°C° 0 mm 4 mps 751 mmHg 65%
    21:00 0°C° 0 mm 4 mps 751 mmHg 68%
    22:00 0°C° 0 mm 4 mps 751 mmHg 71%
    23:00 -1°C° 0 mm 4 mps 752 mmHg 75%
    Show more